Regional Weather Roundup
Issued by NWS State College, PA

Home | Current Version | Previous Version | Text Only | Print | Product List | Glossary Off
Versions: 1 2 3 4 5 6 7 8 9 10 11 12 13 14 15 16 17 18 19 20 21 22 23 24 25 26 27 28 29 30 31 32 33 34 35 36 37 38 39 40 41 42 43 44 45 46 47 48 49 50

000
ASUS41 KCTP 051610
RWRCTP

REGIONAL WEATHER ROUNDUP
NATIONAL WEATHER SERVICE STATE COLLEGE PA
1200 PM EDT TUE MAY 05 2015

Note: "fair" indicates few or no clouds below 12,000 feet with no
significant weather and/or obstructions to visibility.

* = STATION THAT DOES NOT REPORT PRECIPITATION /E.G. RAIN...SNOW...ETC/
    THUNDER OR FOG.

PAZ002>004-007>009-013>016-020>023-029>032-051700-
WESTERN PENNSYLVANIA

CITY           SKY/WX    TMP DP  RH WIND       PRES   REMARKS
ERIE           CLOUDY    59  54  83 N3        30.27S HAZE
MEADVILLE      CLOUDY    66  58  75 S8        30.28F HAZE
FRANKLIN*      CLOUDY    63  55  77 S6        30.31S
NEW CASTLE     FAIR      68  66  94 CALM      30.30F
BEAVER COUNTY  CLOUDY    63  61  94 CALM      30.30S FOG
BUTLER*        PTSUNNY   61  59  94 CALM      30.32S
PITTSBURGH INT PTSUNNY   67  61  81 W3        30.30S
PITTSBURGH     PTSUNNY   63  59  87 S3        30.29S
INDIANA*       PTSUNNY   64  61  88 CALM      30.34S FOG
LATROBE        MOSUNNY   63  63 100 CALM      30.32F
WASHINGTON CO* PTSUNNY   66  61  82 SW6       30.32S
$$

PAZ004>006-010>012-017>019-024>028-033>037-041-042-045-046-049>053-051700-
CENTRAL PENNSYLVANIA

CITY           SKY/WX    TMP DP  RH WIND       PRES   REMARKS
BRADFORD       CLOUDY    68  48  48 W3        30.29F
DUBOIS         CLOUDY    66  58  75 VRB5      30.29F
CLEARFIELD     CLOUDY    65  56  72 SW6       30.30F
JOHNSTOWN      CLOUDY    60  58  92 CALM      30.32F FOG
ALTOONA        LGT RAIN  63  59  87 W3        30.32S FOG
STATE COLLEGE  CLOUDY    68  57  68 SW8       30.30R
WILLIAMSPORT   MOSUNNY   76  54  46 SW6       30.25F
SELINSGROVE    MOSUNNY   74  57  55 VRB3      30.26S
FT INDIANTOWN  PTSUNNY   77  56  47 VRB5      30.24F
CAPITAL CITY   PTSUNNY   77  57  50 CALM      30.25F
HARRISBURG     PTSUNNY   76  58  53 W5        30.25S
YORK           PTSUNNY   75  58  55 W5        30.27R
$$

PAZ038>040-043-044-047-048-054-055-060>062-067>071-051700-
EASTERN PENNSYLVANIA

CITY           SKY/WX    TMP DP  RH WIND       PRES   REMARKS
SCRANTON       PTSUNNY   74  52  46 VRB7      30.26S
MOUNT POCONO   PTSUNNY   68  52  56 VRB6      30.28S
ALLENTOWN      PTSUNNY   76  56  49 CALM      30.23F
QUAKERTOWN*    MOSUNNY   77  57  50 S3        30.25S
READING        MOSUNNY   80  57  45 W6        30.23F
LANCASTER      SUNNY     76  58  53 W8        30.24F
COATESVILLE    MOSUNNY   75  57  53 W8        30.27S
POTTSTOWN      MOSUNNY   78  58  49 NW8       30.25F
BLUE BELL      MOSUNNY   79  57  47 NW5       30.23F
DOYLESTOWN     MOSUNNY   78  55  44 VRB5      30.23F
WILLOW GROVE   NOT AVBL
NORTH PHILA    MOSUNNY   80  52  37 VRB3      30.25S
PHILADELPHIA   PTSUNNY   76  55  48 SW5       30.24F
$$


USA.gov is the U.S. government's official web portal to all federal, state and local government web resources and services.